Location: Unspecified
(0.0000°N, 0.0000°E)
Time: 16:58:45
(UTC+00:00)

ISS - Visible Passes

Search period start: 27 August 2016 00:00
Search period end: 06 September 2016 00:00
Orbit: 402 x 406 km, 51.6° (Epoch: 27 August)

Date Brightness Start Highest point End Pass type
(mag) Time Alt. Az. Time Alt. Az. Time Alt. Az.
27 Aug -1.6 05:22:14 10° SSW 05:25:14 33° SE 05:28:12 10° ENE visible
27 Aug -0.2 18:34:02 10° WSW 18:35:16 12° SW 18:36:31 10° SSW visible
28 Aug -0.4 04:31:16 10° SSE 04:32:50 13° SE 04:34:24 10° E visible
29 Aug -3.1 05:14:13 15° SW 05:16:42 51° NW 05:19:53 10° NNE visible
30 Aug -2.1 04:24:54 41° E 04:24:54 41° E 04:27:27 10° NE visible
31 Aug -1.3 05:08:13 14° NW 05:08:13 14° NW 05:09:52 10° NNW visible
